Regional Weather Roundup
Issued by NWS Upton, NY

Current Version | Previous Version | Text Only | Print | Product List | Glossary On
Versions: 1 2 3 4 5 6 7 8 9 10 11 12 13 14 15 16 17 18 19 20 21 22 23 24 25 26 27 28 29 30 31 32 33 34 35 36 37 38 39 40 41 42 43 44 45 46 47 48 49 50
000 ASUS41 KOKX 260005 RWROKX REGIONAL WEATHER ROUNDUP NATIONAL WEATHER SERVICE NEW YORK NY 800 PM EDT SUN SEP 25 2016 NOTE: "FAIR" INDICATES FEW OR NO CLOUDS BELOW 12,000 FEET WITH NO SIGNIFICANT WEATHER AND/OR OBSTRUCTIONS TO VISIBILITY. NYZ071-072-176-178-NJZ106-104-260100- NEW YORK CITY METRO AREA CITY SKY/WX TMP DP RH WIND PRES REMARKS Central Park CLEAR 63 36 36 CALM 30.17S LaGuardia APRT PTCLDY 68 38 33 NE3 30.14R Kennedy INTL PTCLDY 63 37 38 NE5 30.16R Newark/Liberty PTCLDY 67 36 31 NW6 30.15R Bronx Bot Gard N/A 57 37 47 NE1 30.16R Wall St Helipt CLEAR 68 39 34 SW5 30.15S Teterboro CLEAR 62 40 44 CALM 30.14R $$ NYZ177-179-078>081-260100- LONG ISLAND NEW YORK CITY SKY/WX TMP DP RH WIND PRES REMARKS Farmingdale CLEAR 62 37 39 CALM 30.16R MacArthur/ISP PTCLDY 58 35 42 N3 30.15R Shirley CLEAR 54 41 61 N3 30.16R Riverhead NOT AVBL Westhampton CLEAR 47 40 76 N5 30.17R Southampton N/A 55 45 67 NW1 30.12R Bridgehampton N/A 52 45 76 CALM 30.00R East Hampton FAIR 49 45 84 CALM 30.14R Montauk N/A 64 37 36 NW9 30.16R $$ NYZ052-065-067-260100- HUDSON VALLEY CITY SKY/WX TMP DP RH WIND PRES REMARKS White Plains CLEAR 57 38 48 CALM 30.15R Newburgh CLEAR 63 36 36 VRB5 30.17R Montgomery CLEAR 53 42 66 CALM 30.16R Poughkeepsie CLEAR 52 40 63 CALM 30.15R Albany PTCLDY 54 38 54 CALM 30.16R $$ NJZ001-105-106-008-010-013-015-019>022-104-260100- NEW JERSEY CITY SKY/WX TMP DP RH WIND PRES REMARKS Newark/Liberty PTCLDY 67 36 31 NW6 30.15R Teterboro CLEAR 62 40 44 CALM 30.14R Caldwell CLEAR 59 45 59 CALM 30.16R Morristown PTCLDY 52 45 76 NW3 30.16R Somerville CLEAR 55 43 63 CALM 30.14R Linden NOT AVBL Sussex CLEAR 53 42 66 W5 30.16R Abdover N/A 50 45 83 CALM 30.17R Trenton CLEAR 61 43 51 CALM 30.15R Millville CLEAR 56 52 86 CALM 30.16R Atlantic City CLEAR 62 48 60 SE3 30.17R Wrightstown CLEAR 56 49 77 SE7 30.13R Toms River NOT AVBL Belmar CLEAR 59 47 64 S6 30.17R $$ PAZ047>061-062-071-260100- EASTERN PENNSYLVANIA CITY SKY/WX TMP DP RH WIND PRES REMARKS Philadelphia PTCLDY 70 40 33 NW7 30.16R Allentown CLEAR 61 40 45 CALM 30.16R Scranton CLEAR 54 41 61 E6 30.17S $$ CTZ002-004>006-009-010-012-RIZ004-006-007-MAZ004-011-015-260100- SOUTHERN NEW ENGLAND IN CT CITY SKY/WX TMP DP RH WIND PRES REMARKS Bradley INTL PTCLDY 51 40 65 NW5 30.16R Hartford CLEAR 55 40 56 CALM 30.15R Danbury CLEAR 50 41 71 SW5 30.17R Wtrbury/Oxford PTCLDY 54 34 47 CALM 30.18R Bridgeport CLEAR 62 34 35 N6 30.15 Meriden CLEAR 56 40 55 NW3 30.16R New Haven CLEAR 60 35 39 N6 30.16R Chester FAIR 54 39 58 NW3 30.16R Groton CLEAR 58 39 49 N8 30.15R Wilimantic CLEAR 56 41 57 SE5 30.16R IN RI CITY SKY/WX TMP DP RH WIND PRES REMARKS Providence CLEAR 60 31 33 N6 30.15R Block Island CLEAR 61 37 41 N9 30.15R Westerly CLEAR 52 40 63 NW3 30.16R IN MA CITY SKY/WX TMP DP RH WIND PRES REMARKS Boston CLEAR 60 34 37 N8 30.14R Worcester CLEAR 53 30 41 NW7 30.15R Westfield CLEAR 50 40 68 N3 30.15R Provincetown CLEAR 58 43 57 N9 30.14R Nantucket CLEAR 51 40 65 CALM 30.13R $$ ANZ330-335-338-340-345-350-353-355-260100- COASTAL MARINE OBSERVATIONS STATION/POSITION TIME SKY/WX TEMP WIND PRES VSBY WAVE AIR SEA DIR/SP/G HT/PER (UTC) (F) (DEG/KT/KT) (MB) (MI) (FT/S) NY HARB ENTRANCE 2250 67 72 350/ 2/ 6 1020.5 3/10 20S FIRE ISLAND 2250 65 70 310/ 8/ 14 1020.4 3/11 GREAT SOUTH BAY 2315 65 71 350/ 6/ 6 N/A 23 SSW MONTAUK P 2250 65 68 280/ 10/ 12 1020.3 2/11 15 E BARNEGAT LI 2300 71 N/A 3/11 HUDSON CANYON 2250 65 69 1020.9 4/10 KINGS POINT 2324 65 73 N/A EXECUTION ROCKS 2345 67 10/ 4/ 6 N/A CENTRAL LI SOUND 2300 67 72 340/ 14/ 17 N/A 1/ 3 EASTERN LI SOUND NOT AVBL ROBBINS REEF 2324 68 330/ 4/ 5 N/A $$ >>>>>>>>>>>>>>>>>>>>>>>>>>>> KEY <<<<<<<<<<<<<<<<<<<<<<<<<<< > < > SKY/WX - Sky Condition/Present Weather < > TMP - Temperature in Fahrenheit < > DP - Dew Point in Fahrenheit < > RH - Relative Humidity in Percent < > WIND - Direction (from) and Speed in MPH < > PRES - Mean Sea Level Pressure (inches of Hg) < > WCI - Wind Chill Index < > VSB - VISIBILITY IN MILES < > HX - HEAT INDEX < > TC - TEMPERATURE IN CELSIUS < > VRB - VARIABLE WIND DIRECTION < > < >>>>>>>>>>>>>>>>>>>>>>>>>>>> KEY <<<<<<<<<<<<<<<<<<<<<<<<<<<

USA.gov is the U.S. government's official web portal to all federal, state and local government web resources and services.